CW3077 Weather Reports


Display with metric or nautical units.
time (UTC)temp
F
wind
direction
speed
MPH
gust
MPH
rain 1hr
in
rain 24hr
in
rain mn
in
humidity
%
barometer
mb
20260905202515 99 180 2.0 6.0 0.00 0.00 0.00 39 1013.4
20260905202015 99 225 3.0 10.0 0.00 0.00 0.00 40 1013.3
20260905201515 99 203 4.0 9.0 0.00 0.00 0.00 40 1013.4
20260905201015 99 203 2.0 8.0 0.00 0.00 0.00 41 1013.5
20260905200515 100 68 4.0 10.0 0.00 0.00 0.00 40 1013.6
20260905200015 99 135 3.0 7.0 0.00 0.00 0.00 41 1013.8
20260905195515 99 135 2.0 7.0 0.00 0.00 0.00 39 1013.9
20260905195015 100 135 3.0 10.0 0.00 0.00 0.00 40 1014.0
20260905194515 98 225 2.0 5.0 0.00 0.00 0.00 40 1014.0
20260905194015 99 225 3.0 10.0 0.00 0.00 0.00 41 1014.1
20260905193515 99 135 3.0 11.0 0.00 0.00 0.00 41 1014.2
20260905193015 99 135 5.0 12.0 0.00 0.00 0.00 41 1014.2
20260905192515 98 135 1.0 4.0 0.00 0.00 0.00 43 1014.3
20260905192015 97 135 2.0 4.0 0.00 0.00 0.00 42 1014.4
20260905191515 97 135 2.0 7.0 0.00 0.00 0.00 40 1014.4
20260905191035 99 90 4.0 10.0 0.00 0.00 0.00 40 1014.6
20260905190555 99 158 3.0 11.0 0.00 0.00 0.00 38 1014.6
20260905190037 99 158 3.0 10.0 0.00 0.00 0.00 39 1014.7
20260905185537 98 158 3.0 9.0 0.00 0.00 0.00 41 1014.6
20260905185037 99 68 3.0 8.0 0.00 0.00 0.00 41 1014.9
20260905184517 97 68 3.0 7.0 0.00 0.00 0.00 42 1014.9
20260905184039 97 158 4.0 8.0 0.00 0.00 0.00 41 1015.0
20260905183517 97 45 4.0 10.0 0.00 0.00 0.00 42 1015.1
20260905183017 97 158 4.0 9.0 0.00 0.00 0.00 43 1015.1
20260905182517 98 158 5.0 10.0 0.00 0.00 0.00 43 1015.1
20260905182017 98 158 4.0 9.0 0.00 0.00 0.00 42 1015.3
20260905181537 97 158 5.0 13.0 0.00 0.00 0.00 45 1015.2
20260905181017 96 135 4.0 11.0 0.00 0.00 0.00 47 1015.3
20260905180517 93 270 3.0 7.0 0.00 0.00 0.00 50 1015.5
20260905180015 93 180 2.0 10.0 0.00 0.00 0.00 50 1015.7
20260905175537 94 180 4.0 11.0 0.00 0.00 0.00 49 1015.8
20260905175018 94 225 3.0 8.0 0.00 0.00 0.00 50 1015.8
20260905174517 94 180 3.0 7.0 0.00 0.00 0.00 49 1015.9
20260905174017 94 203 4.0 10.0 0.00 0.00 0.00 54 1016.0
20260905173517 93 248 3.0 7.0 0.00 0.00 0.00 53 1015.8
20260905173017 91 248 3.0 7.0 0.00 0.00 0.00 54 1016.0
20260905172517 94 180 3.0 7.0 0.00 0.00 0.00 50 1016.1
20260905172017 95 90 5.0 9.0 0.00 0.00 0.00 49 1016.2
20260905171517 93 225 3.0 8.0 0.00 0.00 0.00 52 1016.1
20260905171017 93 180 3.0 6.0 0.00 0.00 0.00 54 1016.1
20260905170537 92 270 2.0 6.0 0.00 0.00 0.00 54 1016.2
20260905170017 94 158 3.0 9.0 0.00 0.00 0.00 53 1016.3
20260905165535 93 135 2.0 6.0 0.00 0.00 0.00 54 1016.3
20260905165016 93 203 3.0 9.0 0.00 0.00 0.00 54 1016.4
20260905164517 92 158 4.0 10.0 0.00 0.00 0.00 57 1016.5
20260905164019 92 203 3.0 8.0 0.00 0.00 0.00 54 1016.5
20260905163517 92 180 4.0 10.0 0.00 0.00 0.00 55 1016.5
20260905163016 92 248 4.0 11.0 0.00 0.00 0.00 55 1016.4
20260905162537 92 158 3.0 10.0 0.00 0.00 0.00 56 1016.6
20260905162017 92 225 3.0 8.0 0.00 0.00 0.00 58 1016.3
20260905161517 91 158 3.0 8.0 0.00 0.00 0.00 58 1016.4
20260905161017 90 180 3.0 9.0 0.00 0.00 0.00 59 1016.3
20260905160517 90 225 4.0 10.0 0.00 0.00 0.00 60 1016.2
20260905160016 90 225 4.0 10.0 0.00 0.00 0.00 61 1016.2
20260905155516 89 270 4.0 9.0 0.00 0.00 0.00 59 1016.2
20260905155016 89 225 3.0 7.0 0.00 0.00 0.00 62 1016.3
20260905154516 89 180 4.0 9.0 0.00 0.00 0.00 61 1016.3
20260905154016 89 248 2.0 6.0 0.00 0.00 0.00 62 1016.3
20260905153538 89 225 4.0 9.0 0.00 0.00 0.00 63 1016.4
20260905153017 88 180 4.0 9.0 0.00 0.00 0.00 63 1016.3
20260905152517 88 225 3.0 8.0 0.00 0.00 0.00 66 1016.3
20260905152016 88 203 3.0 10.0 0.00 0.00 0.00 67 1016.2
20260905151516 87 225 4.0 8.0 0.00 0.00 0.00 66 1016.3
20260905151016 87 180 5.0 9.0 0.00 0.00 0.00 67 1016.3
20260905150517 86 203 3.0 8.0 0.00 0.00 0.00 68 1016.1
20260905150017 86 203 4.0 11.0 0.00 0.00 0.00 70 1016.3
20260905145516 85 270 3.0 8.0 0.00 0.00 0.00 72 1016.3
20260905145037 85 203 3.0 9.0 0.00 0.00 0.00 72 1016.3
20260905144516 85 225 3.0 9.0 0.00 0.00 0.00 72 1016.3
20260905144017 84 225 3.0 7.0 0.00 0.00 0.00 75 1016.3
20260905143516 84 225 3.0 7.0 0.00 0.00 0.00 77 1016.3
20260905143016 83 225 2.0 6.0 0.00 0.00 0.00 78 1016.3
20260905142517 83 180 3.0 8.0 0.00 0.00 0.00 79 1016.4
20260905142036 83 225 2.0 5.0 0.00 0.00 0.00 80 1016.3
20260905141516 82 225 3.0 8.0 0.00 0.00 0.00 80 1016.3
20260905141017 82 158 2.0 6.0 0.00 0.00 0.00 82 1016.3
20260905140518 82 203 2.0 4.0 0.00 0.00 0.00 83 1016.4
20260905140016 81 203 2.0 5.0 0.00 0.00 0.00 84 1016.2
20260905135536 81 158 2.0 8.0 0.00 0.00 0.00 85 1016.2
20260905135037 81 203 1.0 4.0 0.00 0.00 0.00 86 1016.2
20260905134557 80 203 2.0 4.0 0.00 0.00 0.00 87 1016.1
20260905134016 79 180 2.0 7.0 0.00 0.00 0.00 88 1015.9
20260905133516 79 203 1.0 5.0 0.00 0.00 0.00 89 1015.8
20260905133016 78 203 1.0 3.0 0.00 0.00 0.00 90 1015.8
20260905132516 78 203 1.0 3.0 0.00 0.00 0.00 90 1015.7
20260905132016 78 0.0 2.0 0.00 0.00 0.00 90 1015.6
20260905131516 78 203 1.0 2.0 0.00 0.00 0.00 91 1015.4
20260905131016 77 203 1.0 3.0 0.00 0.00 0.00 91 1015.5
20260905130516 77 203 1.0 3.0 0.00 0.00 0.00 91 1015.3
20260905130016 77 203 1.0 3.0 0.00 0.00 0.00 90 1015.3
20260905125516 77 203 1.0 3.0 0.00 0.00 0.00 90 1015.4
20260905125016 77 0.0 3.0 0.00 0.00 0.00 90 1015.2
20260905124516 77 0.0 2.0 0.00 0.00 0.00 90 1015.2
20260905124036 77 203 1.0 2.0 0.00 0.00 0.00 90 1015.2
20260905123516 77 203 1.0 2.0 0.00 0.00 0.00 90 1015.2
20260905123018 77 203 1.0 3.0 0.00 0.00 0.00 90 1015.2
20260905122516 77 203 1.0 3.0 0.00 0.00 0.00 90 1015.1
20260905122016 77 203 1.0 3.0 0.00 0.00 0.00 89 1015.1
20260905121519 77 203 1.0 3.0 0.00 0.00 0.00 89 1015.0
20260905121016 77 203 1.0 3.0 0.00 0.00 0.00 89 1014.9
20260905120516 77 203 1.0 2.0 0.00 0.00 0.00 89 1014.7
20260905120016 77 203 1.0 3.0 0.00 0.00 0.00 89 1014.6
20260905115516 77 203 1.0 3.0 0.00 0.00 0.00 89 1014.6
20260905115016 77 203 1.0 3.0 0.00 0.00 0.00 89 1014.8
20260905114516 77 0.0 2.0 0.00 0.00 0.00 89 1014.8
20260905114016 77 0.0 0.0 0.00 0.00 0.00 89 1014.9
20260905113516 77 0.0 0.0 0.00 0.00 0.00 88 1014.9
20260905113016 77 0.0 0.0 0.00 0.00 0.00 88 1014.8
20260905112516 77 0.0 2.0 0.00 0.00 0.00 87 1014.7
20260905112016 77 0.0 1.0 0.00 0.00 0.00 87 1014.7
20260905111516 77 203 1.0 2.0 0.00 0.00 0.00 87 1014.6
20260905111016 77 0.0 2.0 0.00 0.00 0.00 87 1014.5
20260905110516 77 0.0 0.0 0.00 0.00 0.00 86 1014.6
20260905110016 77 0.0 0.0 0.00 0.00 0.00 86 1014.6
20260905105536 77 0.0 0.0 0.00 0.00 0.00 86 1014.6
20260905105016 77 0.0 0.0 0.00 0.00 0.00 86 1014.7
20260905104516 77 0.0 0.0 0.00 0.00 0.00 86 1014.7
20260905104016 78 0.0 0.0 0.00 0.00 0.00 86 1014.6
20260905103516 78 0.0 0.0 0.00 0.00 0.00 86 1014.7
20260905103036 78 0.0 0.0 0.00 0.00 0.00 85 1014.7
20260905102536 78 0.0 0.0 0.00 0.00 0.00 85 1014.8
20260905102016 78 0.0 0.0 0.00 0.00 0.00 85 1014.7
20260905101516 78 0.0 0.0 0.00 0.00 0.00 86 1014.7
20260905101016 78 0.0 0.0 0.00 0.00 0.00 86 1014.7
20260905100516 78 0.0 0.0 0.00 0.00 0.00 86 1014.7
20260905100016 78 0.0 1.0 0.00 0.00 0.00 86 1014.8
20260905095516 78 203 1.0 4.0 0.00 0.00 0.00 86 1014.7
20260905094516 78 203 1.0 3.0 0.00 0.00 0.00 85 1014.6
20260905094036 79 203 1.0 2.0 0.00 0.00 0.00 85 1014.7
20260905093536 79 203 1.0 3.0 0.00 0.00 0.00 85 1014.6
20260905093016 79 203 2.0 4.0 0.00 0.00 0.00 85 1014.5
20260905092519 79 203 1.0 5.0 0.00 0.00 0.00 85 1014.6
20260905092016 79 203 1.0 4.0 0.00 0.00 0.00 84 1014.7
20260905091516 79 203 1.0 3.0 0.00 0.00 0.00 84 1014.8
20260905091016 79 0.0 4.0 0.00 0.00 0.00 84 1014.6
20260905090516 79 203 1.0 3.0 0.00 0.00 0.00 84 1014.8
20260905090056 79 203 1.0 3.0 0.00 0.00 0.00 84 1014.7
20260905085518 79 203 1.0 4.0 0.00 0.00 0.00 84 1014.7
20260905085016 79 203 1.0 5.0 0.00 0.00 0.00 84 1014.7
20260905084516 79 203 2.0 5.0 0.00 0.00 0.00 84 1014.7
20260905084016 79 203 2.0 5.0 0.00 0.00 0.00 84 1014.8
20260905083516 79 203 1.0 3.0 0.00 0.00 0.00 83 1014.7
20260905083015 79 203 1.0 3.0 0.00 0.00 0.00 83 1014.8
20260905082556 79 203 1.0 4.0 0.00 0.00 0.00 83 1014.7
20260905082016 79 203 1.0 5.0 0.00 0.00 0.00 82 1014.8
20260905081515 79 203 1.0 4.0 0.00 0.00 0.00 82 1014.7
20260905081016 80 203 1.0 3.0 0.00 0.00 0.00 82 1014.8
20260905080536 80 203 1.0 5.0 0.00 0.00 0.00 82 1014.9
20260905080016 80 203 1.0 3.0 0.00 0.00 0.00 81 1014.9
20260905075516 80 203 1.0 3.0 0.00 0.00 0.00 82 1014.8
20260905075036 80 203 2.0 5.0 0.00 0.00 0.00 81 1014.7
20260905074515 80 203 1.0 4.0 0.00 0.00 0.00 81 1014.7
20260905074015 80 203 1.0 4.0 0.00 0.00 0.00 80 1014.8
20260905073515 80 203 1.0 3.0 0.00 0.00 0.00 80 1014.7
20260905073016 80 203 1.0 3.0 0.00 0.00 0.00 80 1014.9
20260905072516 80 203 2.0 4.0 0.00 0.00 0.00 80 1014.9
20260905072015 80 203 2.0 4.0 0.00 0.00 0.00 79 1014.9
20260905071515 80 203 2.0 7.0 0.00 0.00 0.00 79 1015.1
20260905071015 80 180 2.0 7.0 0.00 0.00 0.00 79 1015.1
20260905070516 80 158 2.0 5.0 0.00 0.00 0.00 78 1015.1
20260905070015 81 180 2.0 7.0 0.00 0.00 0.00 78 1015.0
20260905065515 81 203 2.0 7.0 0.00 0.00 0.00 78 1015.1
20260905065015 81 203 1.0 5.0 0.00 0.00 0.00 77 1015.0
20260905064535 81 180 1.0 4.0 0.00 0.00 0.00 77 1015.0
20260905064015 81 203 1.0 5.0 0.00 0.00 0.00 77 1015.2
20260905063515 81 158 2.0 9.0 0.00 0.00 0.00 77 1015.2
20260905063016 81 158 2.0 8.0 0.00 0.00 0.00 76 1015.2
20260905062516 81 158 2.0 7.0 0.00 0.00 0.00 76 1015.4
20260905062037 81 158 1.0 6.0 0.00 0.00 0.00 75 1015.4
20260905061516 81 158 1.0 4.0 0.00 0.00 0.00 75 1015.3
20260905061015 81 158 1.0 4.0 0.00 0.00 0.00 74 1015.4
20260905060536 81 158 1.0 4.0 0.00 0.00 0.00 74 1015.4
20260905060015 81 158 1.0 3.0 0.00 0.00 0.00 74 1015.4
20260905055516 81 158 1.0 4.0 0.00 0.00 0.00 74 1015.3
20260905055015 82 158 1.0 4.0 0.00 0.00 0.00 74 1015.3
20260905054516 82 158 2.0 6.0 0.00 0.00 0.00 73 1015.4
20260905054015 82 158 3.0 8.0 0.00 0.00 0.00 73 1015.4
20260905053516 82 158 4.0 11.0 0.00 0.00 0.00 73 1015.3
20260905053015 82 180 3.0 9.0 0.00 0.00 0.00 72 1015.3
20260905052515 82 158 3.0 11.0 0.00 0.00 0.00 72 1015.4
20260905052016 82 158 3.0 11.0 0.00 0.00 0.00 72 1015.4
20260905051516 82 180 3.0 9.0 0.00 0.00 0.00 72 1015.5
20260905051015 82 158 4.0 10.0 0.00 0.00 0.00 71 1015.5
20260905050516 82 180 3.0 9.0 0.00 0.00 0.00 72 1015.5
20260905050015 82 158 2.0 8.0 0.00 0.00 0.00 72 1015.5
20260905045516 82 158 3.0 6.0 0.00 0.00 0.00 72 1015.5
20260905045016 82 158 4.0 10.0 0.00 0.00 0.00 72 1015.5
20260905044536 82 158 4.0 9.0 0.00 0.00 0.00 72 1015.5
20260905044016 82 158 3.0 9.0 0.00 0.00 0.00 72 1015.5
20260905043516 82 158 2.0 7.0 0.00 0.00 0.00 72 1015.5
20260905043016 82 158 2.0 5.0 0.00 0.00 0.00 72 1015.4
20260905042536 82 158 2.0 8.0 0.00 0.00 0.00 72 1015.4
20260905042016 82 135 3.0 8.0 0.00 0.00 0.00 72 1015.4
20260905041516 82 135 3.0 8.0 0.00 0.00 0.00 71 1015.5
20260905041016 82 135 3.0 8.0 0.00 0.00 0.00 71 1015.4
20260905040516 82 158 3.0 8.0 0.00 0.00 0.00 71 1015.3
20260905040016 82 135 2.0 8.0 0.00 0.00 0.00 71 1015.2
20260905035516 82 135 2.0 5.0 0.00 0.00 0.00 71 1015.1
20260905035016 83 158 2.0 7.0 0.00 0.00 0.00 71 1015.4
20260905034516 83 135 3.0 8.0 0.00 0.00 0.00 71 1015.3
20260905034016 83 158 3.0 8.0 0.00 0.00 0.00 71 1015.2
20260905033516 83 135 3.0 7.0 0.00 0.00 0.00 71 1015.1
20260905033056 83 135 2.0 7.0 0.00 0.00 0.00 71 1015.3
20260905032516 83 135 3.0 7.0 0.00 0.00 0.00 71 1015.3
20260905032016 83 135 2.0 7.0 0.00 0.00 0.00 72 1015.2
20260905031537 83 135 1.0 4.0 0.00 0.00 0.00 71 1015.1
20260905031016 83 135 1.0 4.0 0.00 0.00 0.00 71 1015.0
20260905030516 83 135 2.0 5.0 0.00 0.00 0.00 70 1014.8
20260905030016 83 135 2.0 5.0 0.00 0.00 0.00 70 1014.8
20260905025516 84 135 2.0 4.0 0.00 0.00 0.00 70 1014.8
20260905025016 84 158 2.0 3.0 0.00 0.00 0.00 70 1014.9
20260905024516 84 158 1.0 4.0 0.00 0.00 0.00 70 1014.8
20260905024018 84 158 2.0 5.0 0.00 0.00 0.00 70 1014.7
20260905023516 84 158 2.0 5.0 0.00 0.00 0.00 70 1014.8
20260905023016 84 135 2.0 6.0 0.00 0.00 0.00 69 1014.7
20260905022516 84 135 2.0 7.0 0.00 0.00 0.00 70 1014.6
20260905022016 84 158 2.0 7.0 0.00 0.00 0.00 69 1014.4
20260905021516 84 158 3.0 9.0 0.00 0.00 0.00 69 1014.4
20260905021036 84 135 2.0 9.0 0.00 0.00 0.00 69 1014.3
20260905020516 85 135 4.0 10.0 0.00 0.00 0.00 69 1014.3
20260905020036 85 158 3.0 8.0 0.00 0.00 0.00 69 1014.2
20260905015516 85 158 4.0 8.0 0.00 0.00 0.00 69 1014.1
20260905015016 85 113 3.0 9.0 0.00 0.00 0.00 69 1014.2
20260905014516 85 135 4.0 9.0 0.00 0.00 0.00 69 1014.1
20260905014016 85 158 3.0 10.0 0.00 0.00 0.00 69 1014.0
20260905013536 85 135 4.0 8.0 0.00 0.00 0.00 69 1014.0
20260905013015 85 135 4.0 9.0 0.00 0.00 0.00 69 1013.9
20260905012515 85 158 3.0 9.0 0.00 0.00 0.00 68 1013.9
20260905012015 85 158 3.0 8.0 0.00 0.00 0.00 68 1013.8
20260905011517 85 135 3.0 7.0 0.00 0.00 0.00 68 1013.7
20260905011016 85 158 3.0 9.0 0.00 0.00 0.00 68 1013.8
20260905010536 85 135 3.0 9.0 0.00 0.00 0.00 68 1013.8
20260905010016 86 135 3.0 9.0 0.00 0.00 0.00 67 1013.7
20260905005515 86 135 2.0 5.0 0.00 0.00 0.00 67 1013.7
20260905005015 86 135 2.0 8.0 0.00 0.00 0.00 66 1013.7
20260905004515 86 135 4.0 10.0 0.00 0.00 0.00 66 1013.7
20260905004015 86 135 4.0 8.0 0.00 0.00 0.00 65 1013.8
20260905003516 87 113 3.0 11.0 0.00 0.00 0.00 64 1013.8
20260905003015 87 135 3.0 9.0 0.00 0.00 0.00 64 1013.5
20260905002515 87 135 4.0 10.0 0.00 0.00 0.00 64 1013.4
20260905002015 87 135 5.0 10.0 0.00 0.00 0.00 64 1013.5
20260905001516 87 135 6.0 13.0 0.00 0.00 0.00 63 1013.5
20260905001017 87 135 4.0 11.0 0.00 0.00 0.00 63 1013.5
20260905000516 87 135 6.0 13.0 0.00 0.00 0.00 63 1013.4
20260905000015 88 135 7.0 15.0 0.00 0.00 0.00 62 1013.5
20260904235516 88 113 6.0 13.0 0.00 0.00 0.00 61 1013.5
20260904235035 88 113 6.0 13.0 0.00 0.00 0.00 60 1013.4
20260904234515 89 113 5.0 12.0 0.00 0.00 0.00 58 1013.5
20260904234015 89 135 6.0 14.0 0.00 0.00 0.00 57 1013.5
20260904233515 89 135 5.0 11.0 0.00 0.00 0.00 54 1013.6
20260904233036 88 135 6.0 13.0 0.00 0.00 0.00 55 1013.4
20260904232515 88 135 4.0 13.0 0.00 0.00 0.00 57 1013.3
20260904232015 88 135 6.0 12.0 0.00 0.00 0.00 58 1013.5
20260904231516 88 135 6.0 13.0 0.00 0.00 0.00 57 1013.5
20260904231015 88 135 6.0 13.0 0.00 0.00 0.00 55 1013.5
20260904230515 89 135 8.0 20.0 0.00 0.00 0.00 55 1013.6
20260904230016 91 135 9.0 20.0 0.00 0.00 0.00 53 1013.6
20260904225515 92 135 7.0 14.0 0.00 0.00 0.00 53 1013.6
20260904225015 93 180 4.0 10.0 0.00 0.00 0.00 48 1013.4
20260904224515 94 203 4.0 9.0 0.00 0.00 0.00 47 1013.3
20260904224015 94 158 4.0 11.0 0.00 0.00 0.00 48 1013.4
20260904223515 94 135 5.0 12.0 0.00 0.00 0.00 48 1013.4
20260904223015 94 158 4.0 12.0 0.00 0.00 0.00 48 1013.7
20260904222515 94 158 4.0 12.0 0.00 0.00 0.00 48 1013.7
20260904222015 94 203 3.0 9.0 0.00 0.00 0.00 44 1013.5
20260904221515 94 158 5.0 10.0 0.00 0.00 0.00 42 1013.5
20260904221015 95 135 5.0 13.0 0.00 0.00 0.00 43 1013.5
20260904220515 95 135 3.0 11.0 0.00 0.00 0.00 42 1013.5
20260904220015 94 135 4.0 9.0 0.00 0.00 0.00 41 1013.5
20260904215515 94 203 5.0 11.0 0.00 0.00 0.00 38 1013.6
20260904215015 94 203 4.0 8.0 0.00 0.00 0.00 42 1013.8
20260904214516 94 180 3.0 9.0 0.00 0.00 0.00 43 1014.0
20260904214015 94 158 4.0 10.0 0.00 0.00 0.00 42 1014.0
20260904213515 94 135 4.0 10.0 0.00 0.00 0.00 41 1013.9
20260904213015 94 113 3.0 10.0 0.00 0.00 0.00 44 1014.1
20260904212515 95 135 5.0 12.0 0.00 0.00 0.00 42 1014.2
20260904212035 94 158 5.0 10.0 0.00 0.00 0.00 42 1014.0
20260904211515 95 135 5.0 12.0 0.00 0.00 0.00 44 1014.2
20260904211015 94 135 5.0 12.0 0.00 0.00 0.00 42 1014.1
20260904210517 94 158 4.0 15.0 0.00 0.00 0.00 44 1014.3
20260904210015 94 158 4.0 9.0 0.00 0.00 0.00 45 1014.3
20260904205515 94 203 4.0 13.0 0.00 0.00 0.00 44 1014.4
20260904205015 94 203 5.0 14.0 0.00 0.00 0.00 42 1014.4
20260904204515 95 203 4.0 13.0 0.00 0.00 0.00 44 1014.4
20260904204015 95 135 5.0 11.0 0.00 0.00 0.00 45 1014.6
20260904203515 94 135 5.0 14.0 0.00 0.00 0.00 45 1014.6
20260904203015 94 180 4.0 10.0 0.00 0.00 0.00 46 1014.6